Driggs, ID

1:31 AM MDT on October 18, 2017 (GMT -0600)
Driggs

Weather History for KDIJ - May, 2012

Change the Weather History Date:

Wednesday, May 30, 2012

  Actual Average (KJAC) Record (KJAC)
Temperature  
Mean Temperature 52 °F -  
Max Temperature 63 °F 64 °F 80 °F (2002)
Min Temperature 41 °F 33 °F 21 °F (2007)
Degree Days  
Heating Degree Days 13    
Growing Degree Days 2 (Base 50)    
Moisture  
Dew Point 34 °F    
Average Humidity 46    
Maximum Humidity 73    
Minimum Humidity 32    
Precipitation  
Precipitation 0.00 in - - ()
Sea Level Pressure  
Sea Level Pressure 30.01 in    
Wind  
Wind Speed 7 mph (SSW)    
Max Wind Speed 10 mph    
Max Gust Speed -    
Visibility 10 miles    
Events      
Averages and records for this station are not official NWS values.
T = Trace of Precipitation, MM = Missing Value Source: NWS Daily Summary

Daily Weather History Graph

Daily Weather History Graph

Search for Another Location

Airport or City:

Trip Planner

Search our weather history database for the weather conditions in past years. The results will help you decide how hot, cold, wet, or windy it might be!

Date:

Astronomy

May. 30, 2012 Rise Set
Actual Time 5:46 AM MDT 8:58 PM MDT
Civil Twilight 5:11 AM MDT 9:33 PM MDT
Nautical Twilight 4:26 AM MDT 10:18 PM MDT
Astronomical Twilight 3:31 AM MDT 11:13 PM MDT
Moon 3:32 PM MDT (5/30) 2:22 AM MDT (5/30)
Length of Visible Light 16h 22m
Length of Day
15h 12m
Waxing Gibbous, 71% of the Moon is Illuminated
May 30
Waxing Gibbous
Jun 4
Full
Jun 11
Last Quarter
Jun 19
New
Jun 26
First Quarter

Hourly Weather History & Observations

Time (MDT) Temp. Windchill Dew Point Humidity Pressure Visibility Wind Dir Wind Speed Gust Speed Precip Events Conditions
12:56 AM 52.9 °F - 30.0 °F 42% 29.86 in 10.0 mi SE 10.4 mph - N/A   Clear
1:56 AM 52.0 °F - 30.0 °F 43% 29.87 in 10.0 mi South 8.1 mph - N/A   Clear
2:56 AM 46.9 °F - 32.9 °F 58% 29.87 in 10.0 mi SSE 6.9 mph - N/A   Clear
3:56 AM 43.9 °F 39.3 °F 32.9 °F 65% 29.90 in 10.0 mi SSE 8.1 mph - N/A   Clear
5:56 AM 41.0 °F 37.1 °F 32.9 °F 73% 29.96 in 10.0 mi Variable 5.8 mph - N/A   Overcast
6:56 AM 45.9 °F 42.9 °F 34.9 °F 66% 29.95 in 10.0 mi SW 5.8 mph - N/A   Partly Cloudy
7:56 AM 46.9 °F - 36.0 °F 66% 29.96 in 10.0 mi South 4.6 mph - N/A   Partly Cloudy
8:56 AM 52.0 °F - 36.0 °F 54% 29.97 in 10.0 mi SE 3.5 mph - N/A   Mostly Cloudy
9:56 AM 54.0 °F - 37.9 °F 55% 30.01 in 10.0 mi NNW 4.6 mph - N/A   Mostly Cloudy
10:56 AM 56.8 °F - 36.0 °F 46% 30.01 in 10.0 mi NNW 10.4 mph - N/A   Partly Cloudy
11:56 AM 59.0 °F - 34.0 °F 39% 30.00 in 10.0 mi Variable 4.6 mph - N/A   Clear
12:56 PM 61.9 °F - 36.0 °F 38% 29.99 in 10.0 mi Variable 6.9 mph - N/A   Partly Cloudy
1:04 PM 60.8 °F - 35.6 °F 39% 30.19 in 10.0 mi North 9.2 mph - N/A   Scattered Clouds
1:22 PM 60.8 °F - 35.6 °F 39% 30.19 in 10.0 mi NNW 8.1 mph - N/A   Mostly Cloudy
1:33 PM 60.8 °F - 35.6 °F 39% 30.19 in 10.0 mi NNW 6.9 mph - N/A   Mostly Cloudy
1:39 PM 60.8 °F - 35.6 °F 39% 30.19 in 10.0 mi NW 6.9 mph - N/A   Mostly Cloudy
1:56 PM 61.0 °F - 34.0 °F 36% 29.99 in 10.0 mi West 8.1 mph - N/A   Mostly Cloudy
2:56 PM 61.0 °F - 32.9 °F 35% 30.02 in 10.0 mi WNW 10.4 mph - N/A   Partly Cloudy
3:56 PM 59.9 °F - 31.1 °F 34% 30.04 in 10.0 mi SW 5.8 mph - N/A   Partly Cloudy
4:56 PM 63.0 °F - 32.9 °F 32% 30.01 in 10.0 mi SW 6.9 mph - N/A   Scattered Clouds
5:56 PM 61.9 °F - 34.9 °F 36% 30.02 in 10.0 mi SSW 5.8 mph - N/A   Mostly Cloudy
6:56 PM 61.0 °F - 36.9 °F 41% 29.99 in 10.0 mi SSW 4.6 mph - N/A   Overcast
7:56 PM 59.9 °F - 32.9 °F 36% 30.00 in 10.0 mi SSW 8.1 mph - N/A   Overcast
8:56 PM 56.8 °F - 36.0 °F 46% 30.00 in 10.0 mi SSE 5.8 mph - N/A   Overcast
9:56 PM 54.9 °F - 34.9 °F 47% 30.01 in 10.0 mi SSE 6.9 mph - N/A   Overcast
10:56 PM 54.9 °F - 34.0 °F 45% 30.01 in 10.0 mi SE 8.1 mph - N/A   Overcast
11:56 PM 50.9 °F - 37.9 °F 61% 30.04 in 10.0 mi NE 6.9 mph - N/A   Overcast